STARLINK-51 (44272 NORAD) Tracking and Keplerian Element Data

This shows tracking and keplerian element data for the satellite.

Feedback or suggestion? Click here.




ElementValue
Catalog44272
NameSTARLINK-51
Epoch Orbit4082
Epoch Day48.83334491
Epoch Year2020
RAAN37.4434
Inclination52.9985
Eccentricity0.0001609
Argument of Perigee60.873
Mean Anonmoly17.3317
Mean Motion15.12057167
Decay Rate0.00240801
L11 44272U 19029AP 20048.83334491 .00240801 00000-0 13399-1 0 9990
L22 44272 52.9985 37.4434 0001609 60.8730 17.3317 15.12057167 40825

Live tracking and technical data element details for STARLINK-51 (NORAD 44272). STARLINK-51 can be tracked NOW for your location showing map with azimuth and elevation plus other details from your city location.

Track the satellite on the map from your city or location and see movement details for azimuth, elevation, latitude, longitude, range, height, and movement on the map or in text.







IsCatalogInMostPopularTable: catalog: 44272, numindb: 71
Update: records affected: 1



GetName: 44272 STARLINK-51

Hit Count: updated at: Wed, 19 Feb 2020 23:39:29 GMT